Regional Weather Roundup
Issued by NWS

Home | Current Version | Previous Version | Graphics & Text | Print | Product List | Glossary On
Versions: 1 2 3 4 5 6 7 8 9 10 11 12 13 14 15 16 17 18 19 20 21 22 23 24 25 26 27 28 29 30 31 32 33 34 35 36 37 38 39 40 41 42 43 44 45 46 47 48 49 50
000
ASUS43 KLSX 170307
RWRMO

WEATHER SUMMARY FOR MISSOURI
NATIONAL WEATHER SERVICE SPRINGFIELD MO
900 PM CST MON JAN 16 2017

NOTE: "FAIR" INDICATES FEW OR NO CLOUDS BELOW 12,000 FEET WITH NO
       SIGNIFICANT WEATHER AND/OR OBSTRUCTIONS TO VISIBILITY.
       CURRENT SKY AND/OR WEATHER CONDITIONS ARE NOT AVAILABLE FOR
       CHILLICOTHE AND FARMINGTON.

MOZ001>031-035>038-043-044-053-054-170400-
...NORTHERN AND WESTERN MISSOURI...

CITY           SKY/WX    TMP DP  RH WIND       PRES   REMARKS
KANSAS CTY INT CLOUDY    40  39  97 SW10      29.90S
KANSAS C DTWN  CLOUDY    42  39  89 SW12      29.92R
LEE`S SUMMIT   CLOUDY    41 N/A N/A W14       29.92R
ST JOSEPH      CLOUDY    36  36 100 W8        29.92R WCI  30
CHILLICOTHE      N/A     44  42  93 W6        29.89R
KIRKSVILLE     CLOUDY    43  43 100 W6        29.85S

$$
MOZ066>068-077>081-088>096-101>105-170400-
...SOUTHWEST MISSOURI...

CITY           SKY/WX    TMP DP  RH WIND       PRES   REMARKS
SPRINGFIELD    CLOUDY    45  38  76 W12       29.97R
JOPLIN         CLOUDY    43  36  76 SW10      29.99F
BRANSON        PTCLDY    50  45  81 W9G24     29.97R

$$
MOZ032>034-039>042-045>050-055>058-069>072-170400-
...CENTRAL MISSOURI...

CITY           SKY/WX    TMP DP  RH WIND       PRES   REMARKS
COLUMBIA       CLOUDY    50  47  89 W16G25    29.88R
JEFFERSON CITY CLOUDY    52  47  83 W17       29.89R
ROLLA          LGT RAIN  56  55  97 SW20G29   29.85S
SEDALIA        CLOUDY    45  41  86 W16G28    29.92R
WHITEMAN AFB   CLOUDY    42  42 100 W15G22    29.91R
WARRENSBURG    CLOUDY    41  37  87 SW15      29.92R
OSAGE BEACH    CLOUDY    50  43  77 W10G22    29.93R

$$
MOZ051-052-059>065-170400-
...EAST CENTRAL MISSOURI...

CITY           SKY/WX    TMP DP  RH WIND       PRES   REMARKS
ST LOUIS INTL  CLOUDY    57  54  89 SE12      29.86F FOG
SPIRIT OF STL  FOG       46  46 100 CALM      29.85F VSB 1/2
ST CHARLES     FOG       50  50 100 E5        29.84F VSB 1/2

$$
MOZ072>076-082>087-097>100-106>115-170400-
...SOUTH CENTRAL AND SOUTHEAST MISSOURI...

CITY           SKY/WX    TMP DP  RH WIND       PRES   REMARKS
CAPE GIRARDEAU CLOUDY    62  58  86 S18       29.92F
FARMINGTON     CLOUDY    58  57  97 S8        29.90F
POPLAR BLUFF   MOCLDY    59  59 100 S7        29.92S
WEST PLAINS    MOCLDY    59  57  93 SW12      29.93R

$$



USA.gov is the U.S. government's official web portal to all federal, state and local government web resources and services.